[[{"header":{"parameterUnit":"m.s-1","parameterCategory":1,"la1":30.2991,"la2":30.254,"lo1":-89.0895,"lo2":-89.0444,"dy":0.0017,"dx":0.0017,"nx":28,"ny":28,"refTime":"2024-08-20T09:00:00:Z","depth":0,"parameterNumber":2,"parameterNumberName":"U-component_of_WINDS"},"data":[0,0,0,0,0,0,0,0,0,0,0,0,0,0,0,0,0,0,0,0,0,0,0,0,0,0,0,0,0,0,0,0,0,0,0,0,0,0,0,0,0,0,0,0,0,0,0,0,0,0,0,0,0,0,0,0,0,0,-0.9086,-0.9086,0,-0.9086,-0.9086,-0.9086,-0.906,-0.9059,-0.9058,-0.9058,-0.9058,-0.9059,-0.906,0,0,0,0,0,0,0,0,0,0,0,0,0,-0.9062,-0.9063,-0.9086,-0.9086,-0.9086,-0.9086,-0.9086,-0.9086,-0.906,-0.9059,-0.9058,-0.9057,-0.9058,-0.9059,-0.906,0,0,0,0,0,0,0,0,0,0,0,0,0,-0.9068,-0.9063,-0.9086,-0.9073,-0.9071,-0.9086,-0.9086,-0.9086,-0.906,-0.9059,-0.9058,-0.9057,-0.9058,-0.9059,-0.906,-0.9087,0,0,-0.9063,-0.9063,0,0,0,0,0,0,0,0,-0.9068,-0.9069,-0.9075,-0.9074,-0.9072,-0.9072,-0.9078,-0.9086,-0.906,-0.9064,-0.9058,-0.9056,-0.9064,-0.9064,-0.9066,-0.9087,-0.9087,-0.9063,-0.9064,-0.9064,-0.9064,0,0,0,0,0,0,0,-0.9068,-0.9069,-0.9086,-0.9075,-0.9073,-0.9067,-0.9066,-0.9079,-0.907,-0.9064,-0.9062,-0.9062,-0.9063,-0.9066,-0.9066,-0.9087,-0.9063,-0.9064,-0.9064,-0.9065,-0.9128,-0.9129,0,0,0,0,0,0,-0.9069,-0.9069,-0.9086,-0.9086,-0.9068,-0.9068,-0.9068,-0.9073,-0.907,-0.9068,-0.9063,-0.9061,-0.9064,-0.9065,-0.9066,-0.9096,-0.9064,-0.9065,-0.9066,-0.9127,-0.9128,-0.9129,0,0,0,0,0,0,-0.9069,-0.9071,-0.9086,-0.9077,-0.9078,-0.9069,-0.9076,-0.9073,-0.9076,-0.9069,-0.9067,-0.9068,-0.9064,-0.9065,-0.9081,-0.9096,-0.9065,-0.9066,-0.9125,-0.9127,-0.9128,-0.9158,0,0,0,0,0,0,-0.9068,-0.9071,-0.9081,-0.9077,-0.9079,-0.9101,-0.9077,-0.9074,-0.9078,-0.9075,-0.9073,-0.9072,-0.9063,-0.908,-0.9083,-0.9097,-0.9067,-0.9124,-0.9126,-0.9128,-0.9156,-0.916,-0.9164,0,0,0,0,0,-0.9067,-0.909,-0.9082,-0.9084,-0.9092,-0.9102,-0.9103,-0.9093,-0.9079,-0.9089,-0.9085,-0.9072,-0.9094,-0.9082,-0.9085,-0.91,-0.9123,-0.9126,-0.9128,-0.9154,-0.9159,-0.9164,0,0,0,0,0,0,-0.9097,-0.9089,-0.908,-0.9103,-0.9103,-0.9098,-0.9111,-0.9099,-0.9104,-0.9101,-0.9088,-0.9088,-0.9106,-0.9105,-0.9091,-0.9125,-0.9106,-0.9109,-0.9125,-0.913,-0.9135,-0.9135,-0.9068,0,0,0,0,0,-0.9106,-0.9115,-0.9108,-0.9128,-0.9129,-0.912,-0.9124,-0.9116,-0.9116,-0.9116,-0.9113,-0.9113,-0.912,-0.9125,-0.9132,-0.9155,-0.9154,-0.9167,-0.9171,-0.9175,-0.9177,-0.9188,-0.9193,-0.9137,-0.9137,-0.9137,0,0,-0.9125,-0.9122,-0.9129,-0.9134,-0.9134,-0.9143,-0.912,-0.9132,-0.9138,-0.9118,-0.9133,-0.913,-0.913,-0.915,-0.9159,-0.9149,-0.9192,-0.9178,-0.9181,-0.9181,-0.9191,-0.9196,-0.9201,-0.9139,-0.9138,-0.9138,0,0,-0.9164,-0.9163,-0.9179,-0.9178,-0.9178,-0.9171,-0.9175,-0.9171,-0.9168,-0.9183,-0.9167,-0.9175,-0.9188,-0.9188,-0.919,-0.9227,-0.9214,-0.9229,-0.9252,-0.9262,-0.9267,-0.9271,-0.9283,-0.9287,-0.9232,-0.9232,-0.9232,0,-0.9188,-0.9201,-0.9189,-0.9201,-0.9203,-0.9184,-0.92,-0.92,-0.9201,-0.9203,-0.9193,-0.9207,-0.9206,-0.9225,-0.9233,-0.9236,-0.9239,-0.9229,-0.9267,-0.9271,-0.9274,-0.9286,-0.929,-0.9233,-0.9233,-0.9233,-0.9233,0,-0.923,-0.9239,-0.9252,-0.9253,-0.9257,-0.9271,-0.926,-0.9265,-0.9256,-0.925,-0.9265,-0.9262,-0.9267,-0.9271,-0.9263,-0.9288,-0.9282,-0.927,-0.9251,-0.9282,-0.9292,-0.9296,-0.9236,-0.9235,-0.9235,-0.9234,0,0,-0.9289,-0.9281,-0.9286,-0.9285,-0.9282,-0.9289,-0.9302,-0.9305,-0.931,-0.9311,-0.932,-0.9331,-0.9319,-0.9321,-0.9312,-0.9321,-0.9349,-0.9307,-0.9307,-0.9314,-0.9375,-0.9384,-0.939,-0.9341,-0.9342,-0.9342,-0.9375,0,-0.9326,-0.9346,-0.9334,-0.9357,-0.9364,-0.9346,-0.9356,-0.9355,-0.935,-0.9355,-0.9349,-0.9356,-0.9341,-0.9341,-0.935,-0.9344,-0.9361,-0.9341,-0.9349,-0.9349,-0.9349,-0.9395,-0.9405,-0.9436,-0.9379,-0.938,-0.938,0,-0.9372,-0.9374,-0.9397,-0.939,-0.9393,-0.9403,-0.9405,-0.9411,-0.9408,-0.9404,-0.9405,-0.9393,-0.9404,-0.9385,-0.94,-0.9386,-0.9389,-0.9386,-0.9387,-0.9387,-0.9366,-0.9396,-0.9446,-0.945,-0.9387,-0.9386,-0.9386,0,-0.9411,-0.942,-0.9434,-0.9434,-0.9428,-0.9434,-0.9432,-0.9429,-0.9431,-0.9433,-0.9434,-0.9437,-0.9438,-0.9441,-0.943,-0.9417,-0.9445,-0.9426,-0.944,-0.9441,-0.9447,-0.9447,-0.9498,-0.945,-0.9449,-0.9449,-0.9449,0,-0.9454,-0.9468,-0.9451,-0.946,-0.9475,-0.9461,-0.9476,-0.9472,-0.9469,-0.9476,-0.946,-0.9467,-0.9452,-0.9457,-0.9449,-0.9461,-0.9462,-0.9458,-0.9455,-0.9459,-0.9459,-0.946,-0.9457,-0.9451,-0.945,-0.945,-0.945,0,-0.9501,-0.949,-0.9504,-0.9496,-0.9494,-0.9505,-0.9498,-0.9505,-0.9498,-0.9507,-0.9509,-0.9497,-0.9502,-0.9492,-0.9495,-0.9489,-0.9506,-0.9501,-0.9507,-0.9505,-0.952,-0.9519,-0.9573,-0.9579,-0.9528,-0.9528,-0.9529,0,-0.9528,-0.9539,-0.9531,-0.9534,-0.9532,-0.9538,-0.954,-0.9526,-0.9529,-0.9526,-0.9534,-0.9537,-0.9539,-0.9548,-0.954,-0.9542,-0.9536,-0.9555,-0.9536,-0.9539,-0.9535,-0.9534,-0.9535,-0.9559,-0.9559,-0.956,-0.956,0,-0.9578,-0.9572,-0.9575,-0.9576,-0.9579,-0.9579,-0.9579,-0.9582,-0.9567,-0.9571,-0.9575,-0.9577,-0.958,-0.9583,-0.9583,-0.958,-0.9567,-0.9566,-0.9569,-0.9573,-0.9576,-0.9573,-0.9517,-0.9565,-0.9564,-0.9564,-0.9564,-0.9564,-0.9615,-0.9623,-0.9618,-0.9622,-0.962,-0.9619,-0.9625,-0.9618,-0.9621,-0.9623,-0.9614,-0.962,-0.9616,-0.9614,-0.9612,-0.9616,-0.9608,-0.9613,-0.9614,-0.9616,-0.9618,-0.9575,-0.9617,-0.9616,-0.9616,-0.9616,-0.9616,0,-0.9664,-0.9659,-0.9663,-0.9662,-0.9664,-0.9651,-0.9649,-0.9652,-0.9658,-0.9655,-0.9657,-0.9661,-0.9663,-0.9655,-0.9656,-0.9661,-0.9655,-0.9662,-0.9661,-0.966,-0.9626,-0.9622,-0.9666,-0.9666,-0.9666,-0.9666,-0.9666,-0.9666,-0.9689,-0.9701,-0.9694,-0.9704,-0.9699,-0.9704,-0.9704,-0.9703,-0.97,-0.9706,-0.9707,-0.9702,-0.9696,-0.9696,-0.9698,-0.9695,-0.9696,-0.9704,-0.9699,-0.9668,-0.9663,-0.9658,-0.9655,-0.9705,-0.9705,-0.9733,-0.9733,-0.9734]},{"header":{"parameterUnit":"m.s-1","parameterCategory":1,"la1":30.2991,"la2":30.254,"lo1":-89.0895,"lo2":-89.0444,"dy":0.0017,"dx":0.0017,"nx":28,"ny":28,"refTime":"2024-08-20T09:00:00:Z","depth":0,"parameterNumber":3,"parameterNumberName":"V-component_of_WINDS"},"data":[0,0,0,0,0,0,0,0,0,0,0,0,0,0,0,0,0,0,0,0,0,0,0,0,0,0,0,0,0,0,0,0,0,0,0,0,0,0,0,0,0,0,0,0,0,0,0,0,0,0,0,0,0,0,0,0,0,0,-2.3972,-2.3972,0,-2.4014,-2.4015,-2.4015,-2.4016,-2.4016,-2.4015,-2.4015,-2.4061,-2.4062,-2.4064,0,0,0,0,0,0,0,0,0,0,0,0,0,-2.3894,-2.3896,-2.3972,-2.3972,-2.3973,-2.4014,-2.4015,-2.4015,-2.4016,-2.4016,-2.4015,-2.4015,-2.406,-2.4062,-2.4064,0,0,0,0,0,0,0,0,0,0,0,0,0,-2.3931,-2.3896,-2.3972,-2.3978,-2.3979,-2.4014,-2.4015,-2.4015,-2.4017,-2.4016,-2.4015,-2.4014,-2.4059,-2.4062,-2.4064,-2.4096,0,0,-2.4072,-2.4073,0,0,0,0,0,0,0,0,-2.3929,-2.3934,-2.3977,-2.3978,-2.3979,-2.4009,-2.4004,-2.4043,-2.4017,-2.4002,-2.4015,-2.4014,-2.4044,-2.4048,-2.4058,-2.4098,-2.41,-2.4072,-2.4074,-2.4075,-2.4076,0,0,0,0,0,0,0,-2.3927,-2.3933,-2.3989,-2.3977,-2.3979,-2.398,-2.3984,-2.4011,-2.4027,-2.4004,-2.4004,-2.4009,-2.4045,-2.4055,-2.4059,-2.4101,-2.4072,-2.4075,-2.4076,-2.4077,-2.4171,-2.4172,0,0,0,0,0,0,-2.3923,-2.393,-2.3987,-2.399,-2.3952,-2.3982,-2.3987,-2.4,-2.4027,-2.403,-2.4009,-2.4009,-2.4051,-2.4056,-2.406,-2.4101,-2.4075,-2.4078,-2.4079,-2.417,-2.4171,-2.4172,0,0,0,0,0,0,-2.3921,-2.3928,-2.3986,-2.396,-2.3968,-2.3984,-2.3999,-2.4002,-2.4012,-2.4031,-2.4034,-2.4017,-2.4051,-2.4057,-2.4087,-2.4102,-2.4079,-2.4081,-2.4169,-2.417,-2.4172,-2.418,0,0,0,0,0,0,-2.3919,-2.3927,-2.3939,-2.396,-2.3969,-2.4011,-2.4,-2.4003,-2.4016,-2.4016,-2.4039,-2.4043,-2.4051,-2.4084,-2.409,-2.4105,-2.4083,-2.4168,-2.4169,-2.4171,-2.4179,-2.4182,-2.4184,0,0,0,0,0,-2.3916,-2.394,-2.3939,-2.3946,-2.3984,-2.4012,-2.4017,-2.4025,-2.4017,-2.403,-2.4042,-2.4042,-2.4099,-2.4087,-2.4094,-2.411,-2.4167,-2.4169,-2.4171,-2.4177,-2.4181,-2.4184,0,0,0,0,0,0,-2.392,-2.3943,-2.3942,-2.3974,-2.3991,-2.4012,-2.4028,-2.4028,-2.4049,-2.4047,-2.4057,-2.4063,-2.4093,-2.4105,-2.409,-2.4143,-2.4132,-2.4136,-2.4135,-2.4138,-2.4141,-2.4139,-2.4085,0,0,0,0,0,-2.3924,-2.3944,-2.3963,-2.3989,-2.3998,-2.4011,-2.4024,-2.4028,-2.4047,-2.4054,-2.4069,-2.4088,-2.411,-2.4124,-2.4146,-2.418,-2.4186,-2.4195,-2.4197,-2.42,-2.4203,-2.4224,-2.4228,-2.4179,-2.4179,-2.4179,0,0,-2.3934,-2.3949,-2.3961,-2.399,-2.4004,-2.4026,-2.4017,-2.404,-2.4057,-2.4058,-2.4088,-2.4099,-2.4121,-2.4153,-2.4169,-2.4164,-2.4218,-2.4202,-2.4204,-2.4207,-2.4226,-2.4231,-2.4235,-2.4181,-2.418,-2.418,0,0,-2.3963,-2.3975,-2.3999,-2.4013,-2.4033,-2.4042,-2.4048,-2.4069,-2.4076,-2.4106,-2.4108,-2.4128,-2.4166,-2.4181,-2.4194,-2.4229,-2.423,-2.4236,-2.4251,-2.4271,-2.4275,-2.4278,-2.4292,-2.4297,-2.4239,-2.4239,-2.4239,0,-2.3973,-2.4005,-2.4011,-2.4034,-2.4048,-2.4049,-2.4074,-2.4087,-2.4114,-2.4124,-2.4117,-2.4166,-2.418,-2.4217,-2.4226,-2.4235,-2.4243,-2.4234,-2.4273,-2.4277,-2.4281,-2.4294,-2.4299,-2.424,-2.424,-2.424,-2.4239,0,-2.4016,-2.4038,-2.4055,-2.408,-2.4096,-2.4119,-2.4131,-2.4145,-2.4148,-2.4158,-2.4189,-2.4206,-2.4232,-2.4241,-2.4244,-2.4279,-2.4275,-2.4271,-2.4261,-2.4286,-2.4299,-2.4304,-2.4241,-2.424,-2.424,-2.424,0,0,-2.405,-2.4079,-2.4085,-2.4097,-2.412,-2.4137,-2.4161,-2.4186,-2.4199,-2.4217,-2.4239,-2.4271,-2.4267,-2.4282,-2.4287,-2.4304,-2.4333,-2.4298,-2.4299,-2.4305,-2.4374,-2.4378,-2.4384,-2.4333,-2.4334,-2.4334,-2.4372,0,-2.4083,-2.4125,-2.4132,-2.417,-2.4191,-2.4192,-2.4213,-2.423,-2.424,-2.426,-2.4271,-2.4294,-2.4287,-2.4296,-2.4313,-2.4326,-2.4347,-2.4323,-2.4355,-2.4356,-2.4351,-2.439,-2.4395,-2.443,-2.4377,-2.4378,-2.4379,0,-2.4127,-2.4146,-2.4186,-2.4207,-2.4216,-2.4235,-2.4258,-2.4276,-2.4296,-2.4302,-2.4318,-2.4322,-2.4348,-2.4335,-2.4373,-2.4356,-2.4369,-2.4378,-2.4379,-2.4384,-2.437,-2.4398,-2.4441,-2.4447,-2.4386,-2.4386,-2.4385,0,-2.415,-2.4186,-2.4214,-2.4224,-2.4248,-2.4262,-2.4273,-2.4291,-2.4306,-2.4326,-2.4336,-2.4359,-2.4372,-2.4391,-2.4401,-2.439,-2.4438,-2.4426,-2.4446,-2.4446,-2.4457,-2.4457,-2.4505,-2.4463,-2.4463,-2.4462,-2.4462,0,-2.4188,-2.4212,-2.4225,-2.4243,-2.4271,-2.4278,-2.4306,-2.4317,-2.4333,-2.4354,-2.4356,-2.4376,-2.4387,-2.4409,-2.4417,-2.4448,-2.4453,-2.446,-2.4462,-2.4461,-2.446,-2.4471,-2.447,-2.4464,-2.4463,-2.4463,-2.4463,0,-2.4219,-2.4228,-2.426,-2.428,-2.4285,-2.4305,-2.4323,-2.4341,-2.435,-2.4376,-2.4383,-2.4398,-2.4424,-2.4435,-2.4466,-2.4472,-2.4508,-2.4507,-2.4501,-2.4502,-2.4522,-2.4521,-2.458,-2.4589,-2.4539,-2.454,-2.454,0,-2.4243,-2.4262,-2.4284,-2.4297,-2.4308,-2.433,-2.4345,-2.4353,-2.4368,-2.4391,-2.4407,-2.4432,-2.4453,-2.4494,-2.4509,-2.4533,-2.4535,-2.4554,-2.4539,-2.4537,-2.4537,-2.4537,-2.454,-2.4557,-2.4558,-2.4558,-2.4559,0,-2.4285,-2.4289,-2.4309,-2.4331,-2.4348,-2.4366,-2.4384,-2.4395,-2.4406,-2.4424,-2.4449,-2.4465,-2.4497,-2.4523,-2.4549,-2.4561,-2.4563,-2.4563,-2.4569,-2.4569,-2.4565,-2.457,-2.4511,-2.4562,-2.4562,-2.4561,-2.4561,-2.4561,-2.4315,-2.4332,-2.435,-2.4373,-2.4387,-2.4404,-2.4422,-2.4433,-2.4454,-2.448,-2.4484,-2.4512,-2.4531,-2.4566,-2.4579,-2.4602,-2.4597,-2.4606,-2.4608,-2.4611,-2.4613,-2.456,-2.4606,-2.4606,-2.4606,-2.4606,-2.4606,0,-2.4359,-2.4371,-2.4391,-2.4416,-2.4434,-2.4431,-2.4451,-2.4467,-2.4491,-2.4509,-2.4529,-2.4559,-2.4584,-2.46,-2.4626,-2.4642,-2.4643,-2.4648,-2.4648,-2.4651,-2.4615,-2.4607,-2.4647,-2.4647,-2.4647,-2.4647,-2.4647,-2.4647,-2.4384,-2.4414,-2.442,-2.4457,-2.4468,-2.4495,-2.4506,-2.4522,-2.4536,-2.457,-2.459,-2.46,-2.4617,-2.4644,-2.4668,-2.4672,-2.4682,-2.4688,-2.4692,-2.4658,-2.4654,-2.465,-2.4643,-2.469,-2.469,-2.4728,-2.4728,-2.4728]}]]